#timestamp,LO_Frequency,Hit,StdDev 
1530075615.8,286047000.5,N
1530075635.6,286047000.3,N
1530075655.5,286047000.2,N
1530075675.3,286047002.6,N
1530075695.1,286047000.4,N
1530075715.9,286047000.9,N
1530075735.7,286047000.5,N
1530075755.5,286047002.2,N
1530075775.4,286046999.9,N
1530075795.2,286047000.9,N
1530075815.1,286047000.5,N
1530075816.0,286047000.5,N
1530075835.8,286047001.4,N
1530075855.6,286047002.4,N
1530075875.5,286047000.7,N
1530075895.3,286047000.7,N
1530075915.1,286047000.9,N
1530075935.9,286047001.6,N
1530075955.7,286047001.4,N
1530075975.6,286047003.8,Y
1530075995.4,286047002.8,P
1530076015.2,286047001.5,N
1530076035.1,286047003.8,P
1530076055.6,286047001.3,N
1530076075.5,286047001.4,N
1530076095.4,286047001.9,N
1530076115.2,286047001.5,N
1530076135.1,286047001.9,N
1530076136.0,286047001.9,N
1530076155.8,286047001.5,N
1530076175.6,286047002.8,Y
1530076195.5,286046996.9,P
1530076215.3,286046999.1,N
1530076235.1,286047000.2,N
1530076255.9,286047000.2,N
1530076275.7,286047000.3,N
1530076295.6,286047002.8,N
1530076315.4,286047004.4,N
1530076335.2,286047004.1,N
1530076355.1,286047004.0,N
1530076356.0,286047004.0,N
1530076375.8,286047001.5,N
1530076395.6,286046999.9,N
1530076415.5,286047002.8,N
1530076435.3,286047002.2,N
1530076455.2,286047002.1,N
1530076475.0,286047004.2,N
1530076475.9,286047004.2,N
1530076495.7,286047001.4,N
1530076515.6,286047002.1,N
1530076535.4,286047001.7,N
1530076555.3,286047002.7,N
1530076575.1,286047002.1,N
1530076576.0,286047002.1,N
1530076595.8,286047002.7,N
1530076615.7,286047001.3,N
1530076635.5,286047004.1,N
1530076655.3,286047004.4,N
1530076675.2,286047004.3,N
1530076695.0,286047001.4,N
1530076695.9,286047001.4,N
1530076715.8,286047004.3,N
1530076735.6,286047004.0,N
1530076755.4,286047002.0,N
1530076775.3,286047002.1,N
1530076795.1,286047003.2,N
1530076815.8,286047004.2,Y
1530076835.7,286046998.2,P
1530076855.5,286046998.1,N
1530076875.4,286047000.7,N
1530076895.2,286046999.2,N
1530076915.0,286046999.4,N
1530076915.9,286046999.4,N
1530076935.8,286046999.0,N
1530076955.6,286046999.1,N
1530076975.4,286046999.0,N
1530076995.3,286046998.9,N
1530077015.1,286046996.6,N
1530077035.9,286046999.4,N
1530077055.7,286046999.1,N
1530077075.5,286046998.8,N
1530077095.4,286046998.2,N
1530077115.2,286046998.5,N
1530077135.0,286046999.0,N
1530077135.9,286046999.0,N
1530077155.8,286046999.5,N
1530077175.6,286047000.6,N
1530077195.5,286047001.0,N
1530077215.3,286047001.1,N
1530077235.1,286047000.6,N
1530077255.9,286047000.1,N
1530077275.7,286046998.7,N
1530077295.5,286047000.7,N
1530077315.4,286047000.4,N
1530077335.2,286046999.7,N
1530077355.1,286047002.8,N
1530077386.0,286047001.5,E
1530077395.0,286047000.1,N
1530077395.9,286047000.1,P
1530077415.7,286046998.2,P
1530077435.6,286047001.1,N
1530077455.4,286046999.7,N
1530077475.3,286047000.2,N
1530077495.1,286046999.9,N
1530077496.0,286046999.9,N
1530077515.8,286047000.7,N
1530077535.7,286046998.1,N
1530077555.5,286047000.5,N
1530077575.3,286047003.1,Y
1530077595.2,286047002.4,P
1530077615.0,286047000.2,N
1530077615.9,286047000.2,N
1530077635.8,286047000.6,N
1530077655.6,286047000.0,N
1530077675.4,286046998.4,N
1530077695.3,286047001.0,N
1530077715.1,286047000.2,N
1530077735.9,286047000.2,N
1530077755.7,286047002.2,N
1530077775.5,286047000.5,N
1530077795.4,286047000.3,N
1530077815.2,286046999.0,N
1530077835.1,286046999.1,N
1530077836.0,286046999.1,N
1530077855.8,286046998.7,N
1530077875.6,286046998.2,N
1530077895.5,286046999.4,N
1530077915.3,286046998.2,N
1530077935.2,286046998.5,N
1530077955.9,286047000.3,N
1530077975.7,286047001.0,N
1530077995.6,286046998.6,N
1530078015.4,286046998.9,N
1530078035.3,286047000.7,N
1530078055.1,286046998.3,N
1530078056.0,286046998.3,N
1530078075.8,286046998.5,N
1530078095.7,286046999.5,N
1530078115.5,286046999.3,N
1530078135.3,286046996.9,N
1530078155.2,286046997.7,N
1530078175.0,286046997.3,N
1530078175.9,286046997.3,N
1530078195.8,286047001.1,N
1530078215.6,286047001.1,N
1530078235.4,286046999.3,N
1530078255.3,286046998.1,N
1530078275.1,286046999.0,N
1530078295.8,286047002.7,N
1530078315.7,286047002.2,N
1530078335.5,286047000.6,N
1530078355.4,286047001.1,N
1530078375.2,286046998.8,N
1530078395.0,286046996.6,N
1530078395.9,286046996.6,N
1530078415.8,286046997.6,N
1530078435.6,286046999.4,N
1530078455.4,286046996.6,N
1530078475.3,286046999.3,N
1530078495.1,286046996.5,N
1530078515.9,286046999.5,N
1530078535.7,286046997.2,N
1530078555.5,286047001.1,N
1530078575.4,286047000.6,N
1530078595.2,286047000.0,N
1530078615.0,286047000.0,N
1530078615.9,286047000.0,N
1530078635.8,286046998.3,N
1530078655.6,286047002.4,N
1530078675.5,286047002.4,N
1530078695.3,286047000.3,N
1530078715.1,286046998.3,N
1530078735.9,286047000.9,N
1530078755.7,286047002.4,N
1530078775.6,286047000.4,N
1530078795.4,286047000.3,N
1530078815.2,286046998.4,N
1530078835.1,286046996.5,N
1530078836.0,286046996.5,N
1530078855.8,286046999.2,N
1530078875.6,286047000.2,N
1530078895.5,286046998.2,N
1530078915.3,286047000.6,N
1530078935.2,286046999.2,N
1530078955.9,286046997.7,N
1530078975.7,286046997.2,N
1530078995.6,286046999.4,N
1530079015.4,286046998.4,N
1530079035.3,286046999.8,N
1530079055.1,286047002.2,N
1530079056.0,286047002.2,N
1530079075.8,286046999.8,N
1530079095.7,286047000.4,N
1530079115.5,286047001.0,N
1530079135.3,286047000.8,N
1530079155.2,286047000.7,N
1530079175.0,286047001.2,N
1530079175.9,286047001.2,N
1530079195.8,286046998.4,N
